Location: Neuvy Saint Sepulchre
(46.5953°N, 1.8122°E)
Time: 14:22:23
(UTC+02:00)

ISS - Pass Details

Date: 24 September 2022
Orbit: 414 x 417 km, 51.6° (Epoch: 01 October)

Event Time Altitude Azimuth Distance (km) Brightness Sun altitude
Rises 21:18:44 0° 286° (WNW) 2,363 1.9 -16.4°
Reaches altitude 10° 21:20:58 10° 296° (WNW) 1,499 0.3 -16.8°
Maximum altitude 21:24:03 33° 3° (N) 728 -2.5 -17.3°
Enters shadow 21:25:10 26° 42° (NE) 866 -2.4 -17.5°
